Data No.,UTC Date,UTC Time,Latitude,Longitude,Course(deg),Temp(degC),Sal(psu)
42,2017/9/13,9:33:00,42-35.52N,141-37.07E,176,18.4354,32.3843
43,2017/9/13,9:34:00,42-35.22N,141-37.10E,175,18.3784,32.6247
44,2017/9/13,9:35:00,42-34.93N,141-37.13E,176,18.4037,32.725
45,2017/9/13,9:36:00,42-34.64N,141-37.15E,176,18.3249,32.7458
46,2017/9/13,9:37:00,42-34.33N,141-37.17E,176,18.2432,32.761
47,2017/9/13,9:38:00,42-34.02N,141-37.19E,177,18.2332,32.7838
48,2017/9/13,9:39:00,42-33.70N,141-37.21E,177,18.1342,32.7942
49,2017/9/13,9:40:00,42-33.39N,141-37.23E,177,18.0525,32.8089
50,2017/9/13,9:41:00,42-33.07N,141-37.24E,177,17.919,32.8266
51,2017/9/13,9:42:00,42-32.75N,141-37.26E,177,17.8017,32.8606
52,2017/9/13,9:43:00,42-32.41N,141-37.28E,176,18.0546,32.8728
53,2017/9/13,9:44:00,42-32.09N,141-37.30E,177,18.4389,32.9199
54,2017/9/13,9:45:00,42-31.75N,141-37.32E,177,18.3759,32.9898
55,2017/9/13,9:46:00,42-31.41N,141-37.34E,177,18.393,33.0189
56,2017/9/13,9:47:00,42-31.07N,141-37.36E,177,18.3505,33.0308
57,2017/9/13,9:48:00,42-30.73N,141-37.38E,177,18.3396,33.0403
58,2017/9/13,9:49:00,42-30.38N,141-37.40E,177,18.3892,33.0458
59,2017/9/13,9:50:00,42-30.04N,141-37.41E,177,18.434,33.0521
60,2017/9/13,9:51:00,42-29.68N,141-37.43E,177,18.4006,33.0494
61,2017/9/13,9:52:00,42-29.32N,141-37.45E,177,18.3375,33.0426
62,2017/9/13,9:53:00,42-28.96N,141-37.47E,177,18.3061,33.031
63,2017/9/13,9:54:00,42-28.60N,141-37.48E,178,18.2776,33.0194
64,2017/9/13,9:55:00,42-28.24N,141-37.49E,178,18.3209,33.0095
65,2017/9/13,9:56:00,42-27.86N,141-37.51E,178,18.3846,33.0071
66,2017/9/13,9:57:00,42-27.50N,141-37.52E,178,18.4255,33.0155
67,2017/9/13,9:58:00,42-27.13N,141-37.54E,178,18.506,33.0255
68,2017/9/13,9:59:00,42-26.75N,141-37.55E,178,18.5844,33.0349
69,2017/9/13,10:00:00,42-26.37N,141-37.57E,177,18.6048,33.0448
70,2017/9/13,10:01:00,42-25.99N,141-37.58E,178,18.8152,33.056
71,2017/9/13,10:02:00,42-25.62N,141-37.59E,178,18.8817,33.0705
72,2017/9/13,10:03:00,42-25.25N,141-37.61E,178,18.9084,33.086
73,2017/9/13,10:04:00,42-24.86N,141-37.62E,178,18.9467,33.1101
74,2017/9/13,10:05:00,42-24.49N,141-37.63E,178,18.9684,33.1286
75,2017/9/13,10:06:00,42-24.11N,141-37.65E,178,18.9039,33.1443
76,2017/9/13,10:07:00,42-23.73N,141-37.66E,178,18.7932,33.1664
77,2017/9/13,10:08:00,42-23.36N,141-37.67E,178,18.6834,33.1938
78,2017/9/13,10:09:00,42-22.97N,141-37.68E,178,18.6171,33.2024
79,2017/9/13,10:10:00,42-22.60N,141-37.69E,178,18.524,33.2026
80,2017/9/13,10:11:00,42-22.23N,141-37.71E,178,18.3667,33.2013
81,2017/9/13,10:12:00,42-21.85N,141-37.73E,178,18.2249,33.1992
82,2017/9/13,10:13:00,42-21.47N,141-37.74E,177,18.5491,33.1805
83,2017/9/13,10:14:00,42-21.09N,141-37.76E,178,18.8667,33.2568
84,2017/9/13,10:15:00,42-20.71N,141-37.78E,178,19.0829,33.4109
85,2017/9/13,10:16:00,42-20.32N,141-37.79E,178,19.1568,33.5148
86,2017/9/13,10:17:00,42-19.94N,141-37.80E,180,19.2633,33.5767
87,2017/9/13,10:18:00,42-19.57N,141-37.78E,182,19.4019,33.6297
88,2017/9/13,10:19:00,42-19.18N,141-37.76E,183,19.4422,33.691
89,2017/9/13,10:20:00,42-18.80N,141-37.73E,183,19.4008,33.728
90,2017/9/13,10:21:00,42-18.42N,141-37.70E,183,19.3427,33.7347
91,2017/9/13,10:22:00,42-18.03N,141-37.65E,186,19.2638,33.7275
92,2017/9/13,10:23:00,42-17.66N,141-37.58E,187,19.1897,33.7222
93,2017/9/13,10:24:00,42-17.28N,141-37.51E,187,19.1796,33.727
94,2017/9/13,10:25:00,42-16.90N,141-37.44E,188,19.1562,33.7348
95,2017/9/13,10:26:00,42-16.53N,141-37.36E,188,19.1715,33.7362
96,2017/9/13,10:27:00,42-16.15N,141-37.29E,187,19.1128,33.7352
97,2017/9/13,10:28:00,42-15.78N,141-37.22E,188,19.1153,33.724
98,2017/9/13,10:29:00,42-15.41N,141-37.14E,188,19.0905,33.7071
99,2017/9/13,10:30:00,42-15.03N,141-37.07E,188,19.124,33.6884
100,2017/9/13,10:31:00,42-14.65N,141-36.99E,188,19.1227,33.6751
101,2017/9/13,10:32:00,42-14.27N,141-36.91E,188,19.1725,33.6727
102,2017/9/13,10:33:00,42-13.90N,141-36.84E,188,19.2158,33.6743
103,2017/9/13,10:34:00,42-13.53N,141-36.76E,189,19.2485,33.6793
104,2017/9/13,10:35:00,42-13.15N,141-36.71E,185,19.2969,33.685
105,2017/9/13,10:36:00,42-12.78N,141-36.67E,184,19.3437,33.6933
106,2017/9/13,10:37:00,42-12.41N,141-36.63E,184,19.3756,33.7024
107,2017/9/13,10:38:00,42-12.03N,141-36.60E,184,19.3758,33.7105
108,2017/9/13,10:39:00,42-11.65N,141-36.56E,184,19.356,33.7122
109,2017/9/13,10:40:00,42-11.27N,141-36.52E,184,19.2405,33.7069
110,2017/9/13,10:41:00,42-10.88N,141-36.48E,184,19.0792,33.6847
111,2017/9/13,10:42:00,42-10.50N,141-36.44E,184,18.8903,33.6082
112,2017/9/13,10:43:00,42-10.12N,141-36.40E,184,18.8043,33.5341
113,2017/9/13,10:44:00,42-09.74N,141-36.36E,184,18.8389,33.4829
114,2017/9/13,10:45:00,42-09.36N,141-36.32E,184,18.8496,33.4779
115,2017/9/13,10:46:00,42-08.97N,141-36.28E,184,18.9019,33.4794
116,2017/9/13,10:47:00,42-08.59N,141-36.24E,184,18.9533,33.4861
117,2017/9/13,10:48:00,42-08.22N,141-36.20E,184,18.9378,33.491
118,2017/9/13,10:49:00,42-07.83N,141-36.16E,184,18.8612,33.4907
119,2017/9/13,10:50:00,42-07.45N,141-36.12E,184,18.9142,33.4458
120,2017/9/13,10:51:00,42-07.07N,141-36.09E,183,18.9922,33.4389
121,2017/9/13,10:52:00,42-06.68N,141-36.05E,184,19.0698,33.4684
122,2017/9/13,10:53:00,42-06.29N,141-36.02E,184,18.8154,33.5109
123,2017/9/13,10:54:00,42-05.91N,141-35.98E,184,18.658,33.4862
124,2017/9/13,10:55:00,42-05.52N,141-35.94E,184,18.5691,33.4073
125,2017/9/13,10:56:00,42-05.14N,141-35.89E,184,18.6057,33.3487
126,2017/9/13,10:57:00,42-04.76N,141-35.85E,185,18.5592,33.3224
127,2017/9/13,10:58:00,42-04.37N,141-35.81E,184,18.536,33.3014
128,2017/9/13,10:59:00,42-03.99N,141-35.77E,183,18.5386,33.2783
129,2017/9/13,11:00:00,42-03.60N,141-35.76E,181,18.5299,33.2547
130,2017/9/13,11:01:00,42-03.21N,141-35.75E,181,18.5161,33.2301
131,2017/9/13,11:02:00,42-02.84N,141-35.73E,181,18.5213,33.2158
132,2017/9/13,11:03:00,42-02.45N,141-35.72E,181,18.5397,33.2092
133,2017/9/13,11:04:00,42-02.06N,141-35.71E,181,18.5535,33.2066
134,2017/9/13,11:05:00,42-01.68N,141-35.70E,181,18.5605,33.2105
135,2017/9/13,11:06:00,42-01.29N,141-35.70E,181,18.5902,33.216
136,2017/9/13,11:07:00,42-00.91N,141-35.69E,181,18.5902,33.2293
137,2017/9/13,11:08:00,42-00.51N,141-35.68E,181,18.5749,33.2387
138,2017/9/13,11:09:00,42-00.13N,141-35.67E,181,18.5035,33.2442
139,2017/9/13,11:10:00,41-59.74N,141-35.66E,180,18.4995,33.2437
140,2017/9/13,11:11:00,41-59.36N,141-35.65E,181,18.3946,33.2528
141,2017/9/13,11:12:00,41-58.97N,141-35.64E,180,18.2666,33.2773
142,2017/9/13,11:13:00,41-58.59N,141-35.64E,180,18.2356,33.2738
143,2017/9/13,11:14:00,41-58.20N,141-35.63E,181,18.2183,33.2491
144,2017/9/13,11:15:00,41-57.81N,141-35.62E,181,18.1071,33.2427
145,2017/9/13,11:16:00,41-57.43N,141-35.61E,181,18.0814,33.2443
146,2017/9/13,11:17:00,41-57.04N,141-35.60E,181,18.0901,33.2433
147,2017/9/13,11:18:00,41-56.65N,141-35.59E,180,18.0692,33.2272
148,2017/9/13,11:19:00,41-56.28N,141-35.58E,180,18.0732,33.2228
149,2017/9/13,11:20:00,41-55.89N,141-35.57E,181,18.0199,33.2279
150,2017/9/13,11:21:00,41-55.51N,141-35.56E,181,17.9724,33.2399
151,2017/9/13,11:22:00,41-55.14N,141-35.55E,180,18.1175,33.2619
152,2017/9/13,11:23:00,41-54.75N,141-35.54E,180,18.5798,33.2985
153,2017/9/13,11:24:00,41-54.38N,141-35.53E,181,18.7902,33.3774
154,2017/9/13,11:25:00,41-54.01N,141-35.52E,180,18.8978,33.3728
155,2017/9/13,11:26:00,41-53.62N,141-35.52E,181,18.8853,33.3518
156,2017/9/13,11:27:00,41-53.25N,141-35.51E,180,18.8922,33.3289
157,2017/9/13,11:28:00,41-52.88N,141-35.51E,180,18.9333,33.2972
158,2017/9/13,11:29:00,41-52.49N,141-35.51E,180,18.9766,33.2771
159,2017/9/13,11:30:00,41-52.12N,141-35.51E,180,18.8867,33.2732
160,2017/9/13,11:31:00,41-51.74N,141-35.51E,180,18.8051,33.2629
161,2017/9/13,11:32:00,41-51.36N,141-35.51E,179,18.6894,33.2307
162,2017/9/13,11:33:00,41-50.99N,141-35.51E,179,18.4009,33.1984
163,2017/9/13,11:34:00,41-50.61N,141-35.51E,179,18.2351,33.1657
164,2017/9/13,11:35:00,41-50.23N,141-35.52E,179,18.6458,33.0298
165,2017/9/13,11:36:00,41-49.86N,141-35.52E,179,19.261,33.0264
166,2017/9/13,11:37:00,41-49.47N,141-35.52E,179,19.7255,33.3039
167,2017/9/13,11:38:00,41-49.10N,141-35.53E,179,19.9726,33.5015
168,2017/9/13,11:39:00,41-48.72N,141-35.53E,179,20.0948,33.6002
169,2017/9/13,11:40:00,41-48.35N,141-35.54E,179,20.2165,33.6367
170,2017/9/13,11:41:00,41-47.98N,141-35.54E,179,20.3119,33.6661
171,2017/9/13,11:42:00,41-47.60N,141-35.55E,179,20.3341,33.6905
172,2017/9/13,11:43:00,41-47.22N,141-35.56E,179,20.4637,33.7215
173,2017/9/13,11:44:00,41-46.85N,141-35.56E,179,20.5508,33.7587
174,2017/9/13,11:45:00,41-46.48N,141-35.57E,178,20.6681,33.7786
175,2017/9/13,11:46:00,41-46.11N,141-35.59E,178,20.6732,33.7825
176,2017/9/13,11:47:00,41-45.74N,141-35.61E,177,20.4113,33.8029
177,2017/9/13,11:48:00,41-45.37N,141-35.63E,177,20.7928,33.8507
178,2017/9/13,11:49:00,41-45.00N,141-35.65E,177,21.2598,33.8527
179,2017/9/13,11:50:00,41-44.64N,141-35.67E,178,21.5473,33.8868
180,2017/9/13,11:51:00,41-44.26N,141-35.69E,178,21.7657,33.9458
181,2017/9/13,11:52:00,41-43.90N,141-35.71E,177,21.777,33.9652
182,2017/9/13,11:53:00,41-43.52N,141-35.73E,178,21.6355,33.9629
183,2017/9/13,11:54:00,41-43.16N,141-35.74E,177,21.2239,33.9604
184,2017/9/13,11:55:00,41-42.80N,141-35.76E,178,20.6454,33.9799
185,2017/9/13,11:56:00,41-42.43N,141-35.78E,178,20.175,33.9962
186,2017/9/13,11:57:00,41-42.07N,141-35.80E,177,19.9144,34.0331
187,2017/9/13,11:58:00,41-41.72N,141-35.81E,178,19.8914,34.0459
188,2017/9/13,11:59:00,41-41.35N,141-35.83E,178,19.7265,34.0468
189,2017/9/13,12:00:00,41-40.99N,141-35.84E,178,19.7153,34.0517
190,2017/9/13,12:01:00,41-40.64N,141-35.85E,178,19.6723,34.052
191,2017/9/13,12:02:00,41-40.28N,141-35.87E,178,20.3521,34.0489
192,2017/9/13,12:03:00,41-39.92N,141-35.88E,179,20.4488,34.0298
193,2017/9/13,12:04:00,41-39.57N,141-35.89E,178,20.3368,34.013
194,2017/9/13,12:05:00,41-39.20N,141-35.90E,178,19.8309,34.0067
195,2017/9/13,12:06:00,41-38.83N,141-35.91E,178,19.598,34.0166
196,2017/9/13,12:07:00,41-38.46N,141-35.92E,178,19.7298,34.0349
197,2017/9/13,12:08:00,41-38.09N,141-35.94E,178,19.6507,34.0384
198,2017/9/13,12:09:00,41-37.72N,141-35.96E,177,19.729,34.032
199,2017/9/13,12:10:00,41-37.33N,141-35.98E,176,19.7875,34.028
200,2017/9/13,12:11:00,41-36.94N,141-36.01E,176,20.0106,34.024
201,2017/9/13,12:12:00,41-36.55N,141-36.04E,177,20.2566,34.0181
202,2017/9/13,12:13:00,41-36.15N,141-36.06E,177,20.4009,34.0035
203,2017/9/13,12:14:00,41-35.74N,141-36.09E,177,20.5591,33.9934
204,2017/9/13,12:15:00,41-35.33N,141-36.12E,176,20.7312,33.9954
205,2017/9/13,12:16:00,41-34.93N,141-36.14E,177,20.7747,34.008
206,2017/9/13,12:17:00,41-34.51N,141-36.17E,177,20.6349,34.0218
207,2017/9/13,12:18:00,41-34.11N,141-36.20E,176,20.8276,34.066
208,2017/9/13,12:19:00,41-33.69N,141-36.24E,176,20.9676,34.0682
209,2017/9/13,12:20:00,41-33.29N,141-36.27E,176,21.1577,34.0548
210,2017/9/13,12:21:00,41-32.87N,141-36.30E,176,21.3588,34.0365
211,2017/9/13,12:22:00,41-32.46N,141-36.33E,176,21.3481,34.0167
212,2017/9/13,12:23:00,41-32.06N,141-36.36E,176,21.3033,34.0064
213,2017/9/13,12:24:00,41-31.65N,141-36.39E,177,21.0578,34.0108
214,2017/9/13,12:25:00,41-31.24N,141-36.41E,178,20.4954,34.0195
215,2017/9/13,12:26:00,41-30.84N,141-36.43E,178,20.1895,34.0447
216,2017/9/13,12:27:00,41-30.45N,141-36.44E,178,20.2567,34.0747
217,2017/9/13,12:28:00,41-30.07N,141-36.45E,180,19.9787,34.0744
218,2017/9/13,12:29:00,41-29.67N,141-36.44E,180,20.0248,34.0831
219,2017/9/13,12:30:00,41-29.29N,141-36.43E,181,20.0733,34.0947
220,2017/9/13,12:31:00,41-28.91N,141-36.42E,181,20.0987,34.0953
221,2017/9/13,12:32:00,41-28.53N,141-36.41E,181,20.1237,34.0955
222,2017/9/13,12:33:00,41-28.14N,141-36.40E,181,20.235,34.0963
223,2017/9/13,12:34:00,41-27.77N,141-36.38E,181,20.4044,34.0977
224,2017/9/13,12:35:00,41-27.39N,141-36.37E,181,20.4352,34.0958
225,2017/9/13,12:36:00,41-27.01N,141-36.34E,183,20.3601,34.0892
226,2017/9/13,12:37:00,41-26.64N,141-36.32E,183,20.3278,34.0885
227,2017/9/13,12:38:00,41-26.26N,141-36.29E,182,20.5826,34.0836
228,2017/9/13,12:39:00,41-25.90N,141-36.27E,183,20.8044,34.0692
229,2017/9/13,12:40:00,41-25.54N,141-36.24E,182,20.8536,34.0431
230,2017/9/13,12:41:00,41-25.16N,141-36.22E,182,20.9402,34.0315
231,2017/9/13,12:42:00,41-24.80N,141-36.20E,183,20.997,34.0125
232,2017/9/13,12:43:00,41-24.43N,141-36.18E,181,21.0306,33.9965
233,2017/9/13,12:44:00,41-24.05N,141-36.18E,180,21.0621,33.9873
234,2017/9/13,12:45:00,41-23.68N,141-36.18E,179,21.1038,33.9755
235,2017/9/13,12:46:00,41-23.30N,141-36.18E,179,21.1487,33.9702
236,2017/9/13,12:47:00,41-22.92N,141-36.20E,176,21.2131,33.9678
237,2017/9/13,12:48:00,41-22.56N,141-36.25E,173,21.2559,33.9609
238,2017/9/13,12:49:00,41-22.17N,141-36.34E,170,21.2837,33.9561
239,2017/9/13,12:50:00,41-21.80N,141-36.43E,169,21.3169,33.9549
240,2017/9/13,12:51:00,41-21.43N,141-36.54E,167,21.3414,33.9558
241,2017/9/13,12:52:00,41-21.05N,141-36.67E,165,21.3299,33.9562
242,2017/9/13,12:53:00,41-20.67N,141-36.80E,164,21.3337,33.9561
243,2017/9/13,12:54:00,41-20.29N,141-36.94E,164,21.3325,33.953
244,2017/9/13,12:55:00,41-19.92N,141-37.08E,164,21.3432,33.952
245,2017/9/13,12:56:00,41-19.54N,141-37.21E,164,21.3689,33.9545
246,2017/9/13,12:57:00,41-19.16N,141-37.35E,165,21.3773,33.9575
247,2017/9/13,12:58:00,41-18.78N,141-37.48E,165,21.3819,33.963
248,2017/9/13,12:59:00,41-18.40N,141-37.61E,165,21.3779,33.9644
249,2017/9/13,13:00:00,41-18.01N,141-37.75E,165,21.3592,33.9649
250,2017/9/13,13:01:00,41-17.62N,141-37.88E,165,21.3254,33.9638
251,2017/9/13,13:02:00,41-17.25N,141-38.00E,166,21.3203,33.9619
252,2017/9/13,13:03:00,41-16.85N,141-38.13E,166,21.2867,33.9609
253,2017/9/13,13:04:00,41-16.47N,141-38.25E,166,21.2415,33.9617
254,2017/9/13,13:05:00,41-16.08N,141-38.38E,166,21.1566,33.9632
255,2017/9/13,13:06:00,41-15.69N,141-38.49E,167,21.0665,33.9663
256,2017/9/13,13:07:00,41-15.32N,141-38.60E,167,21.0549,33.9708
257,2017/9/13,13:08:00,41-14.93N,141-38.72E,167,21.0834,33.9756
258,2017/9/13,13:09:00,41-14.54N,141-38.82E,168,21.1145,33.9772
259,2017/9/13,13:10:00,41-14.16N,141-38.93E,168,21.1463,33.9776
260,2017/9/13,13:11:00,41-13.77N,141-39.03E,169,21.1591,33.9761
261,2017/9/13,13:12:00,41-13.38N,141-39.13E,169,21.2847,33.9719
262,2017/9/13,13:13:00,41-13.01N,141-39.22E,169,21.3659,33.9749
263,2017/9/13,13:14:00,41-12.62N,141-39.32E,169,21.3953,33.9682
264,2017/9/13,13:15:00,41-12.23N,141-39.42E,169,21.3652,33.9659
265,2017/9/13,13:16:00,41-11.85N,141-39.51E,169,21.3433,33.963
266,2017/9/13,13:17:00,41-11.46N,141-39.61E,168,21.218,33.954
267,2017/9/13,13:18:00,41-11.07N,141-39.72E,168,20.7159,33.9265
268,2017/9/13,13:19:00,41-10.70N,141-39.82E,168,20.2689,33.737
269,2017/9/13,13:20:00,41-10.31N,141-39.92E,168,19.9987,33.5604
270,2017/9/13,13:21:00,41-09.93N,141-40.03E,167,19.9224,33.4003
271,2017/9/13,13:22:00,41-09.54N,141-40.15E,167,19.8,33.3229
272,2017/9/13,13:23:00,41-09.15N,141-40.26E,167,19.8107,33.2379
273,2017/9/13,13:24:00,41-08.78N,141-40.37E,167,19.7537,33.1787
274,2017/9/13,13:25:00,41-08.39N,141-40.48E,167,19.7122,33.1574
275,2017/9/13,13:26:00,41-08.00N,141-40.60E,167,19.7437,33.0883
276,2017/9/13,13:27:00,41-07.62N,141-40.71E,167,19.7909,33.0725
277,2017/9/13,13:28:00,41-07.23N,141-40.82E,167,19.853,33.0817
278,2017/9/13,13:29:00,41-06.85N,141-40.93E,168,19.8654,33.0966
279,2017/9/13,13:30:00,41-06.47N,141-41.03E,167,19.8174,33.1184
280,2017/9/13,13:31:00,41-06.08N,141-41.15E,168,19.7393,33.1297
281,2017/9/13,13:32:00,41-05.71N,141-41.25E,168,19.4756,33.1218
282,2017/9/13,13:33:00,41-05.33N,141-41.35E,168,19.1992,33.0819
283,2017/9/13,13:34:00,41-04.95N,141-41.46E,167,19.2339,33.0005
284,2017/9/13,13:35:00,41-04.58N,141-41.57E,167,19.312,32.9516
285,2017/9/13,13:36:00,41-04.21N,141-41.68E,167,19.3603,32.9568
286,2017/9/13,13:37:00,41-03.83N,141-41.80E,166,19.3958,32.9706
287,2017/9/13,13:38:00,41-03.47N,141-41.91E,166,19.4808,32.986
288,2017/9/13,13:39:00,41-03.09N,141-42.03E,166,19.5167,33.0235
289,2017/9/13,13:40:00,41-02.72N,141-42.14E,166,19.504,33.049
290,2017/9/13,13:41:00,41-02.35N,141-42.25E,166,19.4876,33.0471
291,2017/9/13,13:42:00,41-01.97N,141-42.37E,166,19.4713,33.0371
292,2017/9/13,13:43:00,41-01.61N,141-42.49E,166,19.5145,33.036
293,2017/9/13,13:44:00,41-01.25N,141-42.61E,166,19.5477,33.0569
294,2017/9/13,13:45:00,41-00.87N,141-42.73E,166,19.5899,33.0772
295,2017/9/13,13:46:00,41-00.51N,141-42.85E,166,19.6341,33.1027
296,2017/9/13,13:47:00,41-00.14N,141-42.97E,165,19.6754,33.1205
297,2017/9/13,13:48:00,40-59.78N,141-43.10E,163,19.677,33.1384
298,2017/9/13,13:49:00,40-59.43N,141-43.23E,164,19.7099,33.1437
299,2017/9/13,13:50:00,40-59.06N,141-43.37E,163,19.7507,33.144
300,2017/9/13,13:51:00,40-58.70N,141-43.51E,164,19.8058,33.1557
301,2017/9/13,13:52:00,40-58.35N,141-43.65E,163,19.8667,33.1751
302,2017/9/13,13:53:00,40-57.98N,141-43.79E,164,19.9152,33.1841
303,2017/9/13,13:54:00,40-57.61N,141-43.93E,163,19.9546,33.1924
304,2017/9/13,13:55:00,40-57.25N,141-44.06E,163,20.0121,33.2085
305,2017/9/13,13:56:00,40-56.88N,141-44.21E,163,20.0554,33.2355
306,2017/9/13,13:57:00,40-56.52N,141-44.35E,164,20.1047,33.2817
307,2017/9/13,13:58:00,40-56.16N,141-44.48E,164,20.1844,33.3337
308,2017/9/13,13:59:00,40-55.79N,141-44.62E,164,20.226,33.4152
309,2017/9/13,14:00:00,40-55.43N,141-44.76E,163,20.2423,33.506
310,2017/9/13,14:01:00,40-55.06N,141-44.91E,162,20.1842,33.5702
311,2017/9/13,14:02:00,40-54.70N,141-45.05E,163,20.1131,33.5316
312,2017/9/13,14:03:00,40-54.34N,141-45.19E,163,20.0824,33.4314
313,2017/9/13,14:04:00,40-53.97N,141-45.34E,163,20.0639,33.3664
314,2017/9/13,14:05:00,40-53.61N,141-45.48E,162,20.0449,33.3195
315,2017/9/13,14:06:00,40-53.25N,141-45.62E,163,20.0374,33.3035
316,2017/9/13,14:07:00,40-52.88N,141-45.78E,163,20.0115,33.2979
317,2017/9/13,14:08:00,40-52.52N,141-45.93E,162,20.0032,33.3202
318,2017/9/13,14:09:00,40-52.16N,141-46.07E,162,20.0151,33.2999
319,2017/9/13,14:10:00,40-51.79N,141-46.23E,162,20.0461,33.2912
320,2017/9/13,14:11:00,40-51.43N,141-46.38E,162,20.0875,33.3012
321,2017/9/13,14:12:00,40-51.06N,141-46.53E,162,20.139,33.3178
322,2017/9/13,14:13:00,40-50.69N,141-46.69E,162,20.1306,33.3606
323,2017/9/13,14:14:00,40-50.33N,141-46.85E,160,20.1427,33.3816
324,2017/9/13,14:15:00,40-49.96N,141-47.02E,160,20.1727,33.3965
325,2017/9/13,14:16:00,40-49.60N,141-47.19E,160,20.2159,33.4325
326,2017/9/13,14:17:00,40-49.24N,141-47.35E,161,20.244,33.4787
327,2017/9/13,14:18:00,40-48.87N,141-47.52E,160,20.2871,33.5169
328,2017/9/13,14:19:00,40-48.51N,141-47.68E,161,20.3976,33.5643
329,2017/9/13,14:20:00,40-48.15N,141-47.84E,162,20.5175,33.6164
330,2017/9/13,14:21:00,40-47.77N,141-47.99E,163,20.6038,33.6801
331,2017/9/13,14:22:00,40-47.40N,141-48.12E,165,20.6212,33.7361
332,2017/9/13,14:23:00,40-47.03N,141-48.25E,165,20.6576,33.7998
333,2017/9/13,14:24:00,40-46.65N,141-48.38E,165,20.6653,33.817
334,2017/9/13,14:25:00,40-46.28N,141-48.51E,165,20.7206,33.8456
335,2017/9/13,14:26:00,40-45.90N,141-48.63E,165,20.722,33.8696
336,2017/9/13,14:27:00,40-45.53N,141-48.76E,165,20.8913,33.8773
337,2017/9/13,14:28:00,40-45.16N,141-48.88E,166,20.8941,33.9045
338,2017/9/13,14:29:00,40-44.79N,141-49.00E,165,20.8579,33.9083
339,2017/9/13,14:30:00,40-44.42N,141-49.12E,166,20.773,33.8998
340,2017/9/13,14:31:00,40-44.05N,141-49.24E,166,20.721,33.876
341,2017/9/13,14:32:00,40-43.67N,141-49.36E,166,20.7166,33.8596
342,2017/9/13,14:33:00,40-43.31N,141-49.48E,166,20.6873,33.8443
343,2017/9/13,14:34:00,40-42.94N,141-49.59E,166,20.6365,33.8242
344,2017/9/13,14:35:00,40-42.56N,141-49.71E,166,20.6136,33.7907
345,2017/9/13,14:36:00,40-42.19N,141-49.82E,167,20.5427,33.7678
346,2017/9/13,14:37:00,40-41.82N,141-49.94E,166,20.4686,33.7373
347,2017/9/13,14:38:00,40-41.44N,141-50.06E,166,20.4572,33.7093
348,2017/9/13,14:39:00,40-41.08N,141-50.17E,166,20.449,33.6886
349,2017/9/13,14:40:00,40-40.70N,141-50.29E,166,20.0986,33.6864
350,2017/9/13,14:41:00,40-40.33N,141-50.41E,166,19.9933,33.5804
351,2017/9/13,14:42:00,40-39.96N,141-50.52E,166,20.0502,33.4474
352,2017/9/13,14:43:00,40-39.58N,141-50.64E,167,20.0999,33.4109
353,2017/9/13,14:44:00,40-39.21N,141-50.75E,166,20.1886,33.4062
354,2017/9/13,14:45:00,40-38.84N,141-50.86E,166,20.2659,33.4234
355,2017/9/13,14:46:00,40-38.46N,141-50.98E,166,20.3397,33.4605
356,2017/9/13,14:47:00,40-38.08N,141-51.10E,166,20.4375,33.4974
357,2017/9/13,14:48:00,40-37.71N,141-51.22E,165,20.4901,33.5381
358,2017/9/13,14:49:00,40-37.33N,141-51.37E,162,20.5141,33.5745
359,2017/9/13,14:50:00,40-36.97N,141-51.52E,162,20.5435,33.597
360,2017/9/13,14:51:00,40-36.59N,141-51.67E,162,20.584,33.6179
361,2017/9/13,14:52:00,40-36.22N,141-51.82E,162,20.595,33.649
362,2017/9/13,14:53:00,40-35.86N,141-51.97E,162,20.5846,33.6814
363,2017/9/13,14:54:00,40-35.48N,141-52.13E,162,20.56,33.7087
364,2017/9/13,14:55:00,40-35.11N,141-52.28E,163,20.5407,33.7249
365,2017/9/13,14:56:00,40-34.74N,141-52.43E,162,20.4922,33.736
366,2017/9/13,14:57:00,40-34.36N,141-52.58E,162,20.4398,33.7473
367,2017/9/13,14:58:00,40-33.99N,141-52.73E,162,20.1539,33.7583
368,2017/9/13,14:59:00,40-33.63N,141-52.87E,162,19.8887,33.7762
369,2017/9/13,15:00:00,40-33.26N,141-53.02E,162,19.8353,33.7588
370,2017/9/13,15:01:00,40-32.90N,141-53.17E,163,19.8118,33.7394
371,2017/9/13,15:02:00,40-32.53N,141-53.32E,162,19.7773,33.7333
372,2017/9/13,15:03:00,40-32.16N,141-53.46E,163,19.7525,33.7295
373,2017/9/13,15:04:00,40-31.81N,141-53.61E,162,19.7245,33.7178
374,2017/9/13,15:05:00,40-31.44N,141-53.75E,163,19.7564,33.7048
375,2017/9/13,15:06:00,40-31.07N,141-53.90E,163,19.7308,33.705
376,2017/9/13,15:07:00,40-30.71N,141-54.04E,163,19.7381,33.7025
377,2017/9/13,15:08:00,40-30.34N,141-54.19E,163,19.6494,33.6993
378,2017/9/13,15:09:00,40-29.97N,141-54.33E,162,19.6568,33.6995
379,2017/9/13,15:10:00,40-29.62N,141-54.48E,162,19.7107,33.6646
380,2017/9/13,15:11:00,40-29.25N,141-54.63E,162,19.755,33.6377
381,2017/9/13,15:12:00,40-28.89N,141-54.78E,162,19.7952,33.6133
382,2017/9/13,15:13:00,40-28.53N,141-54.92E,162,19.8521,33.5982
383,2017/9/13,15:14:00,40-28.16N,141-55.07E,162,19.8621,33.5769
384,2017/9/13,15:15:00,40-27.80N,141-55.22E,162,19.8467,33.5615
385,2017/9/13,15:16:00,40-27.43N,141-55.37E,163,19.8144,33.5452
386,2017/9/13,15:17:00,40-27.06N,141-55.51E,162,19.8416,33.5182
387,2017/9/13,15:18:00,40-26.71N,141-55.66E,163,19.8694,33.502
388,2017/9/13,15:19:00,40-26.33N,141-55.80E,163,19.9219,33.4982
389,2017/9/13,15:20:00,40-25.97N,141-55.95E,163,19.9488,33.4955
390,2017/9/13,15:21:00,40-25.61N,141-56.09E,162,19.9683,33.4976
391,2017/9/13,15:22:00,40-25.24N,141-56.24E,163,19.9694,33.498
392,2017/9/13,15:23:00,40-24.88N,141-56.38E,163,19.9766,33.4995
393,2017/9/13,15:24:00,40-24.52N,141-56.52E,163,19.9655,33.4975
394,2017/9/13,15:25:00,40-24.14N,141-56.67E,163,19.9262,33.4931
395,2017/9/13,15:26:00,40-23.78N,141-56.81E,163,19.9261,33.478
396,2017/9/13,15:27:00,40-23.42N,141-56.95E,163,19.9279,33.4687
397,2017/9/13,15:28:00,40-23.04N,141-57.09E,163,19.9405,33.4569
398,2017/9/13,15:29:00,40-22.68N,141-57.23E,163,19.9091,33.4512
399,2017/9/13,15:30:00,40-22.31N,141-57.38E,163,19.8349,33.446
400,2017/9/13,15:31:00,40-21.93N,141-57.52E,163,19.8002,33.427
401,2017/9/13,15:32:00,40-21.57N,141-57.66E,163,19.7885,33.4074
402,2017/9/13,15:33:00,40-21.19N,141-57.81E,163,19.7417,33.394
403,2017/9/13,15:34:00,40-20.82N,141-57.95E,163,19.7467,33.388
404,2017/9/13,15:35:00,40-20.45N,141-58.08E,163,19.7018,33.3799
405,2017/9/13,15:36:00,40-20.08N,141-58.23E,163,19.6672,33.3699
406,2017/9/13,15:37:00,40-19.70N,141-58.37E,163,19.6511,33.3576
407,2017/9/13,15:38:00,40-19.33N,141-58.51E,164,19.6654,33.3473
408,2017/9/13,15:39:00,40-18.94N,141-58.66E,163,19.6856,33.3495
409,2017/9/13,15:40:00,40-18.57N,141-58.80E,164,19.6826,33.372
410,2017/9/13,15:41:00,40-18.19N,141-58.94E,163,19.6691,33.4135
411,2017/9/13,15:42:00,40-17.81N,141-59.08E,163,19.6549,33.4563